Orbital Elements at Epoch 2459200.5 (2020-Dec-17.0) TDB
Reference: JPL 17 (heliocentric ecliptic J2000)
Element | Value | Uncertainty (1-sigma) | Units |
e | .05902350485598234 | 4.3656e-08 | |
a | 2.76927432835586 | 1.7266e-08 | au |
q | 2.6058220515886 | 1.2072e-07 | au |
i | 1.581004488362628 | 4.4727e-06 | deg |
node | 75.32616151939908 | 0.0002 | deg |
peri | 345.146885526193 | 0.00020612 | deg |
M | 72.15129173054308 | 4.8922e-05 | deg |
tp | 2458863.143558978293 (2020-Jan-14.64355898) | 0.0002283 | TDB |
period | 1683.245245578924 4.61 | 1.5742e-05 4.31e-08 | d yr |
n | .2138725779535376 | 2.0002e-09 | deg/d |
Q | 2.93272660512312 | 1.8285e-08 | au |
|
| | Orbit Determination Parameters
Additional Information
|